Waterford Airport, Ireland

7:08 AM GMT on February 18, 2018 (GMT +0000)
Waterford

Weather History for EIWF - August, 2014

Change the Weather History Date:

Sunday, August 31, 2014

  Actual Average Record
Temperature  
Mean Temperature 56 °F -  
Max Temperature 64 °F - - ()
Min Temperature 48 °F - - ()
Degree Days  
Heating Degree Days 9    
Growing Degree Days 6 (Base 50)    
Moisture  
Dew Point 56 °F    
Average Humidity 88    
Maximum Humidity 100    
Minimum Humidity 77    
Precipitation  
Precipitation 0.00 in - - ()
Sea Level Pressure  
Sea Level Pressure 30.08 in    
Wind  
Wind Speed 9 mph ()    
Max Wind Speed 18 mph    
Max Gust Speed -    
Visibility 5.7 miles    
Events      
T = Trace of Precipitation, MM = Missing Value Source: Averaged Metar Reports

Daily Weather History Graph

Daily Weather History Graph

Search for Another Location

Airport or City:

Trip Planner

Search our weather history database for the weather conditions in past years. The results will help you decide how hot, cold, wet, or windy it might be!

Date:

Astronomy

Aug. 31, 2014 Rise Set
Actual Time 6:37 AM IST 8:18 PM IST
Civil Twilight 6:02 AM IST 8:53 PM IST
Nautical Twilight 5:18 AM IST 9:37 PM IST
Astronomical Twilight 4:28 AM IST 10:26 PM IST
Moon 12:55 PM IST (8/31) 10:37 PM IST (8/31)
Length of Visible Light 14h 51m
Length of Day
13h 40m
Waxing Crescent, 30% of the Moon is Illuminated
Aug 31
Waxing Crescent
Sep 2
First Quarter
Sep 9
Full
Sep 16
Last Quarter
Sep 24
New

Hourly Weather History & Observations

Time (IST) Temp. Dew Point Humidity Pressure Visibility Wind Dir Wind Speed Gust Speed Precip Events Conditions
7:30 AM 48.2 °F 48.2 °F 100% 30.09 in - Calm Calm - N/A   Clear
8:00 AM 53.6 °F 51.8 °F 94% 30.12 in - SE 2.3 mph - N/A   Clear
8:30 AM 57.2 °F 53.6 °F 88% 30.09 in - Variable 1.2 mph - N/A   Clear
9:00 AM 57.2 °F 53.6 °F 88% 30.09 in - WSW 5.8 mph - N/A   Clear
9:30 AM 57.2 °F 53.6 °F 88% 30.09 in - WSW 10.4 mph - N/A   Clear
10:00 AM 59.0 °F 51.8 °F 77% 30.09 in - WSW 8.1 mph - N/A   Clear
10:30 AM 59.0 °F 53.6 °F 82% 30.09 in - WSW 9.2 mph - N/A   Clear
11:00 AM 60.8 °F 53.6 °F 77% 30.09 in - WSW 13.8 mph - N/A   Clear
11:30 AM 60.8 °F 53.6 °F 77% 30.09 in 6.2 mi WSW 12.7 mph - N/A   Scattered Clouds
12:00 PM 60.8 °F 55.4 °F 82% 30.09 in 6.2 mi WSW 11.5 mph - N/A   Scattered Clouds
12:30 PM 60.8 °F 55.4 °F 82% 30.09 in 6.2 mi WSW 15.0 mph - N/A   Scattered Clouds
1:00 PM 62.6 °F 57.2 °F 82% 30.09 in 6.2 mi WSW 12.7 mph - N/A   Scattered Clouds
1:30 PM 62.6 °F 59.0 °F 88% 30.09 in 6.2 mi WSW 15.0 mph - N/A   Scattered Clouds
2:00 PM 64.4 °F 59.0 °F 83% 30.09 in 6.2 mi SW 16.1 mph - N/A   Scattered Clouds
2:30 PM 64.4 °F 59.0 °F 83% 30.09 in 6.2 mi WSW 17.3 mph - N/A   Scattered Clouds
3:00 PM 62.6 °F 57.2 °F 82% 30.06 in 6.2 mi WSW 18.4 mph - N/A   Scattered Clouds
3:30 PM 62.6 °F 59.0 °F 88% 30.06 in 6.2 mi WSW 17.3 mph - N/A   Scattered Clouds
4:00 PM 62.6 °F 59.0 °F 88% 30.06 in 6.2 mi WSW 17.3 mph - N/A   Scattered Clouds
4:30 PM 62.6 °F 59.0 °F 88% 30.06 in 6.2 mi WSW 18.4 mph - N/A   Mostly Cloudy
5:00 PM 60.8 °F 59.0 °F 94% 30.06 in 6.2 mi WSW 17.3 mph - N/A   Mostly Cloudy
5:30 PM 60.8 °F 59.0 °F 94% 30.06 in 5.6 mi WSW 12.7 mph - N/A   Mostly Cloudy
6:00 PM 60.8 °F 59.0 °F 94% 30.06 in 3.7 mi WSW 13.8 mph - N/A   Overcast
6:30 PM 60.8 °F 59.0 °F 94% 30.06 in 5.0 mi WSW 15.0 mph - N/A   Overcast
7:00 PM 60.8 °F 59.0 °F 94% 30.04 in 4.3 mi WSW 16.1 mph - N/A   Overcast
7:30 PM 60.8 °F 59.0 °F 94% 30.04 in 4.3 mi WSW 15.0 mph - N/A   Overcast
8:00 PM 60.8 °F 59.0 °F 94% 30.06 in 5.6 mi WSW 11.5 mph - N/A   Overcast
8:30 PM 60.8 °F 59.0 °F 94% 30.06 in 5.0 mi West 11.5 mph - N/A   Overcast